Starlink 2047

operational
NORAD ID: 47355 Int'l Des: 2021-005 Owner: SPXS Country: US Constellation: starlink
LEOCIRCULARSTARLINK_TYPE

About Starlink 2047

Description loading...

Live Position

Loading 3D Globe...

Upcoming Passes

Altitude History

Altitude vs Time

uPlot chart will show altitude changes over time

Two-Line Element Set

1 47355U 21005G 26018.89640466 .00001956 00000-0 15017-3 0 9990
2 47355 53.0552 235.1501 0001665 90.5457 269.5723 15.06394483276238
Epoch: Jan 18, 2026 • Age: 14 hours

Current Status

Altitude 561.1 km
Velocity 7.58 km/s
Sub-Earth Point -39.48°S, 98.58°W
Launch Date Jan 20, 2021
Age 4.9 years
Type internet

Technical Details

Classification Payload
Mass 260.00 kg
Dry Mass 248.00 kg
Total Mass 260.00 kg
Length 0.20 m
Diameter 2.80 m
Span 9.00 m
Shape Box + pan
Manufacturer SPXS
Bus Type Starlink
Phase Status In Orbit
Owner/State SPXS/US

Large Constellations

Loading constellations...